Theta_e
318 319 320 321 322 323 324 324 326 327 329 329 330 329 329 329 328 329 331 332 332 331 333 332 331 333 333 334 335 335 334 333 333 333 334 334 334 337 340 341 340 338 338 339 341 341 339 340 343 341 340 341 341 342 342 341 341 339 338 339 339 339 338 337 337 336 336 336 335 334 334 334 334 333 331 329 326 326 326 327 326 326 328 330 330
319 319 321 322 323 324 324 324 324 326 327 328 330 330 328 328 328 328 328 329 331 333 334 330 330 332 332 334 335 334 334 334 333 334 334 334 334 336 339 340 339 339 337 337 337 339 341 340 340 341 340 341 339 341 342 342 341 340 338 339 338 338 338 338 337 337 336 336 335 334 333 334 334 333 331 328 327 326 326 326 326 327 327 328 329
320 321 323 323 324 324 323 323 324 325 326 326 329 332 328 328 329 329 329 329 329 331 332 331 329 330 332 332 333 333 333 333 334 333 334 335 335 335 337 339 337 338 336 337 337 338 339 339 340 340 341 342 341 340 340 340 341 340 338 338 338 339 338 337 337 336 336 336 335 334 333 334 334 333 331 329 328 326 326 326 325 325 326 328 329
320 322 324 323 323 323 322 323 323 324 326 326 326 328 328 329 329 331 331 330 329 329 330 329 328 329 330 331 331 331 332 333 332 332 334 335 335 334 335 338 338 339 338 337 337 338 336 338 339 339 339 340 341 341 342 343 341 339 339 338 337 338 338 337 337 336 336 336 335 334 333 333 334 333 332 331 329 327 327 327 326 327 326 326 329
321 321 324 322 322 322 322 324 323 324 325 326 325 325 325 325 327 329 330 329 328 328 330 328 328 328 328 328 329 330 331 331 331 333 335 335 335 335 335 336 337 338 339 340 337 336 337 338 337 339 341 342 340 340 339 341 341 340 339 338 337 337 339 338 337 337 336 337 336 335 333 332 332 334 333 331 330 329 328 327 326 327 327 327 330
323 323 322 322 322 322 322 322 323 324 324 325 324 324 324 325 327 327 330 326 325 326 329 326 328 328 327 328 330 330 331 330 332 334 337 336 336 335 336 336 336 336 338 339 337 336 336 337 337 338 340 341 341 341 340 339 339 341 339 339 338 338 338 338 338 337 336 336 336 334 333 332 333 334 334 332 331 330 329 327 326 326 328 327 327
323 323 323 321 320 321 321 321 324 323 322 324 323 323 323 323 326 325 325 325 325 327 326 325 325 326 327 329 329 331 331 330 330 333 334 335 335 335 335 336 337 336 337 337 339 335 336 337 337 337 337 337 340 340 340 340 342 339 338 339 339 338 338 338 338 337 337 336 336 335 332 333 334 333 333 332 331 330 328 327 327 326 328 328 327
323 324 324 321 320 320 320 322 323 321 321 322 323 322 322 322 323 324 323 323 325 324 325 324 326 327 328 327 328 331 330 329 330 332 333 333 333 334 335 335 335 336 339 338 337 336 336 337 338 335 335 336 337 339 340 341 340 340 338 340 339 339 338 338 338 337 337 336 336 336 333 333 334 333 333 333 332 331 329 328 327 326 328 327 327
323 324 323 322 320 319 320 321 322 320 320 320 321 323 321 321 321 324 321 321 321 322 323 323 324 326 326 326 327 329 328 329 331 332 332 331 332 334 335 335 336 338 337 338 337 336 338 338 338 336 335 336 336 337 338 340 338 338 340 341 340 339 339 338 338 338 337 336 336 334 333 332 333 333 334 334 333 331 330 329 327 326 325 325 326
321 322 321 324 320 319 319 321 322 320 320 320 320 321 321 320 320 321 321 321 320 320 321 322 323 324 326 325 327 328 328 329 331 333 330 331 333 335 335 335 336 335 336 337 336 335 335 336 337 337 334 336 336 336 337 338 339 340 340 340 339 337 339 338 338 338 337 337 335 334 333 332 332 333 334 333 333 332 331 330 328 327 326 326 325
320 321 322 320 319 319 319 319 321 320 320 319 319 321 321 320 319 320 320 321 320 320 320 321 322 322 325 325 326 327 327 330 329 328 329 330 334 336 335 334 335 335 336 337 336 334 334 333 333 335 335 335 336 336 337 337 337 338 339 339 339 338 338 337 338 338 338 337 335 334 334 333 331 332 332 333 334 333 332 330 329 328 328 327 326
320 319 321 321 318 318 318 319 319 318 317 317 317 318 318 318 319 322 318 320 320 320 320 320 319 319 323 324 323 324 327 328 327 327 328 330 333 334 333 334 333 334 336 337 336 335 334 334 334 334 334 335 337 337 337 336 337 336 338 340 340 337 337 338 338 338 338 337 336 334 334 334 332 332 332 331 333 334 332 332 331 330 329 329 328
325 320 317 321 319 318 318 318 318 319 317 317 317 319 320 319 319 320 319 317 317 319 319 320 320 320 320 321 322 324 328 326 326 327 327 328 331 332 333 333 333 333 333 335 336 336 335 334 333 333 333 333 335 337 337 336 336 337 339 340 340 339 338 337 338 338 338 337 336 334 334 335 334 332 332 331 333 334 333 332 332 331 330 330 330
323 322 319 317 318 318 317 317 317 319 318 318 319 320 317 317 318 317 318 317 316 318 317 321 318 316 316 318 319 321 325 323 325 326 326 326 328 330 330 331 331 332 333 334 335 335 336 335 334 333 333 333 333 335 337 337 336 335 336 338 339 340 338 338 338 338 338 337 336 335 334 335 335 334 334 332 331 333 333 333 332 332 331 331 331
317 324 319 318 316 317 317 316 317 319 315 315 315 315 315 315 316 317 315 316 317 319 317 319 316 317 317 317 313 314 319 321 323 324 325 325 326 327 328 327 327 330 333 333 333 333 335 335 334 333 332 332 333 334 334 335 335 335 335 336 337 337 338 339 339 338 338 338 337 336 334 334 336 336 335 333 332 332 334 334 332 332 333 331 331
317 320 319 316 316 316 317 317 316 318 314 314 314 314 315 315 315 317 315 313 312 314 320 318 317 318 314 314 313 312 311 314 317 321 322 324 324 324 325 325 326 328 330 330 332 333 334 334 334 333 332 332 332 333 334 335 335 336 336 337 337 336 337 337 338 338 336 337 337 336 335 334 335 336 335 335 334 332 333 334 332 331 332 332 331
317 317 324 317 316 316 317 317 317 317 316 314 314 314 314 314 315 315 314 312 311 312 315 319 316 320 318 316 313 312 312 316 315 317 320 323 322 323 325 322 324 327 327 328 329 331 332 332 332 331 332 333 333 333 333 334 335 337 338 336 335 335 336 337 338 339 338 336 337 338 336 335 335 334 336 335 335 334 333 334 333 331 330 331 332
316 317 319 325 315 316 316 317 317 318 317 314 313 314 315 315 315 314 314 314 312 311 311 317 318 318 317 320 321 314 314 316 314 311 320 320 321 321 322 321 322 325 325 325 326 327 331 330 331 330 331 332 333 332 333 333 334 336 337 337 337 335 336 336 337 338 338 337 336 336 337 336 336 336 335 336 335 334 333 333 334 333 332 332 332
317 317 317 322 316 315 316 316 316 316 321 314 314 313 314 316 318 314 315 316 312 310 311 311 313 315 316 316 320 321 321 316 312 312 309 316 319 318 321 320 321 323 322 322 324 325 328 330 330 330 330 331 332 333 333 333 334 335 335 336 336 336 335 335 337 337 338 338 337 336 337 337 336 337 336 336 336 334 333 333 334 333 333 333 333
316 316 317 319 323 316 315 316 316 317 322 314 314 314 314 315 317 314 315 316 313 312 311 311 310 311 317 315 316 318 319 318 317 315 312 309 312 316 319 318 320 321 322 321 323 324 326 329 330 331 330 331 332 332 332 333 333 333 335 336 336 336 336 336 336 337 338 338 338 336 335 336 337 336 336 336 336 335 334 333 334 334 333 333 332
314 316 316 316 326 319 315 315 315 317 323 315 314 313 313 313 314 314 312 313 316 314 312 311 312 311 312 313 313 314 315 316 316 318 313 310 309 310 310 316 318 320 320 321 322 324 326 329 332 333 332 332 332 332 332 332 333 333 333 334 335 336 337 337 336 336 337 338 338 338 337 336 336 336 336 336 336 336 334 334 334 334 334 333 333
313 315 316 316 315 317 317 316 316 317 324 312 313 313 313 312 313 314 313 313 313 315 314 312 312 312 311 312 312 312 312 313 313 314 314 312 309 308 310 311 310 314 319 319 321 324 325 330 331 333 333 332 333 333 332 332 332 332 333 334 334 335 335 336 336 337 338 336 337 338 337 336 336 336 336 336 336 336 336 334 334 334 334 334 333
313 317 314 315 315 322 319 314 317 325 323 313 313 314 314 312 311 311 312 312 313 312 314 314 313 313 311 312 312 312 311 310 312 312 311 309 309 308 310 311 312 312 317 319 322 324 325 329 329 331 333 332 332 332 332 332 332 331 331 333 334 334 335 336 335 335 337 338 338 338 338 337 337 336 335 336 337 337 338 336 334 334 334 334 334
314 313 313 314 319 318 319 316 317 313 313 312 313 313 315 314 312 315 312 311 312 315 312 313 312 312 312 311 312 313 313 312 313 314 312 312 310 308 309 311 312 313 316 319 321 322 323 327 330 331 332 332 333 333 333 333 333 332 332 333 334 335 336 336 335 335 336 337 337 337 338 338 337 336 336 335 337 338 337 336 335 334 334 335 334
314 313 313 313 316 317 316 315 315 318 318 313 313 314 313 312 314 312 312 313 313 312 313 313 313 314 314 312 312 312 313 313 313 314 312 312 311 309 310 311 309 310 314 315 318 320 323 324 327 331 331 330 331 332 333 334 333 332 331 331 332 333 334 335 336 336 336 337 338 337 337 337 338 338 337 336 336 336 336 336 336 335 334 335 335
314 313 314 314 317 318 319 316 315 314 318 314 313 313 312 311 312 313 314 313 312 312 312 314 313 312 314 313 314 313 313 313 314 313 313 312 310 310 310 309 308 309 311 314 316 316 320 322 325 331 330 329 329 330 331 332 332 331 331 332 333 332 333 335 336 336 336 337 337 337 337 338 338 338 338 338 337 335 334 335 336 336 334 334 335
314 314 315 315 315 316 316 315 314 314 316 316 318 316 315 315 315 312 315 315 311 315 312 312 313 312 313 313 316 313 313 314 313 314 314 315 313 313 311 308 308 307 310 311 312 313 314 320 324 329 327 326 327 327 329 330 330 330 330 332 333 330 330 331 333 334 336 337 337 337 337 338 338 338 338 337 337 334 332 332 334 336 336 335 335
315 315 314 315 315 315 316 317 314 314 314 315 314 315 314 313 312 313 312 318 316 313 311 312 311 311 312 312 313 313 313 313 315 316 316 317 316 313 313 311 308 305 308 309 310 312 314 316 321 325 324 325 326 326 326 328 331 328 330 333 333 331 327 327 329 331 333 335 336 336 336 337 337 336 336 336 335 334 334 334 334 335 336 337 335
316 316 314 314 315 315 314 314 314 314 313 314 315 314 313 313 315 313 312 312 314 314 312 312 312 311 312 312 314 314 314 315 315 317 318 318 316 315 315 313 312 309 307 307 309 310 314 316 315 321 323 324 324 326 326 328 328 328 332 333 333 333 328 325 324 325 328 331 333 335 336 335 335 335 335 335 334 334 334 335 334 335 335 334 333
318 317 315 314 314 320 315 314 314 313 314 314 314 314 313 313 312 312 312 312 313 313 314 315 314 313 315 313 312 313 313 314 316 317 319 318 316 316 316 315 314 312 311 308 308 309 313 317 318 318 323 322 322 322 325 326 324 327 330 332 332 333 325 321 320 321 324 325 326 328 331 334 335 335 335 335 335 334 334 334 334 334 333 333 333
321 320 316 314 314 314 315 315 314 314 313 313 314 313 313 313 313 313 313 311 311 312 313 313 314 316 315 314 312 313 313 314 315 316 318 318 317 317 317 316 315 314 312 310 306 312 313 315 318 320 319 320 321 322 322 324 325 326 329 331 332 326 323 327 322 320 319 318 318 318 319 325 331 333 334 334 334 334 335 334 334 333 333 330 328
320 322 319 316 314 313 313 314 313 313 312 313 313 313 313 313 313 313 313 312 312 312 313 313 312 313 313 313 313 313 312 312 314 316 316 317 318 316 317 316 316 316 315 312 309 310 315 316 317 318 319 319 320 320 321 322 325 323 328 330 331 324 332 333 326 322 319 316 315 315 314 317 323 327 330 332 333 333 334 333 333 330 328 326 325
321 321 321 320 316 314 313 314 313 313 313 312 313 313 313 313 313 312 312 312 312 312 313 313 313 312 313 312 312 312 311 313 314 313 314 316 315 316 317 316 315 316 315 312 310 311 314 316 316 316 318 319 318 320 319 320 323 325 324 328 329 330 331 332 334 324 318 316 315 313 312 312 313 315 321 328 330 327 328 328 324 323 325 325 325
321 321 321 320 319 315 313 313 313 313 312 312 312 312 312 312 312 313 313 312 311 311 311 311 312 312 311 311 311 311 311 312 312 313 313 314 315 315 314 315 315 315 315 314 311 311 311 314 315 317 316 318 316 320 318 319 320 323 324 326 327 328 328 329 329 331 320 317 314 314 313 311 311 310 311 320 325 320 315 316 317 317 321 322 320
321 321 321 320 319 316 314 314 313 313 313 312 312 312 312 312 312 312 313 312 312 312 311 311 311 311 310 311 312 311 312 312 311 312 312 313 314 314 314 314 315 315 316 316 314 310 311 312 314 314 315 316 315 316 318 320 321 321 323 323 324 326 327 327 326 328 320 315 314 313 312 311 310 310 310 312 313 313 314 315 315 315 314 315 316
320 322 321 321 319 317 314 314 314 313 312 312 311 311 311 311 311 311 312 311 311 312 311 311 311 310 311 310 310 310 311 312 312 311 310 311 312 315 314 314 315 316 316 318 317 314 312 311 313 313 315 314 316 317 318 319 318 320 322 323 324 324 325 325 325 325 321 315 314 314 313 312 311 310 309 309 309 309 310 312 312 312 313 313 313
321 321 322 322 319 317 316 315 315 313 312 311 310 310 310 311 311 311 311 311 311 311 311 311 314 312 310 310 310 310 310 310 311 311 311 310 312 313 313 313 314 315 316 317 316 315 313 311 311 313 313 314 315 316 318 316 316 319 321 321 321 323 323 323 323 323 318 318 318 317 315 314 312 311 310 309 308 308 308 309 310 311 311 311 311
321 320 320 320 320 318 317 316 315 315 314 312 311 310 310 311 311 311 311 311 311 310 310 310 310 311 311 310 310 310 309 310 311 312 311 311 311 311 312 313 313 313 314 314 314 313 312 312 311 311 312 312 313 314 316 316 314 316 319 320 320 321 321 321 322 322 322 327 326 325 319 318 317 313 309 308 308 308 308 308 308 309 309 309 309
320 320 319 319 320 318 318 317 316 316 315 313 312 311 311 310 310 310 310 310 310 310 310 310 310 309 309 310 310 310 310 310 311 311 312 311 312 312 313 312 312 312 313 313 312 311 310 310 309 309 310 312 312 311 314 314 315 315 314 314 315 318 320 319 318 321 322 326 322 317 318 317 316 318 312 309 308 308 308 307 308 308 309 309 307
320 320 320 319 319 319 318 317 317 317 316 314 313 312 312 311 311 310 310 310 309 309 310 309 309 309 309 309 310 310 311 311 311 312 312 312 311 311 312 312 312 312 312 313 311 311 310 309 309 309 309 309 310 311 312 313 314 314 316 313 311 313 315 317 318 317 320 321 321 321 318 318 320 321 315 314 312 311 311 311 311 311 311 309 308
322 321 321 320 319 318 318 318 317 317 316 315 315 314 312 311 310 310 310 310 310 309 309 308 308 308 309 310 310 310 313 317 316 315 314 315 313 312 313 312 312 311 311 311 310 309 309 308 308 308 306 307 307 307 307 309 309 309 312 312 312 314 314 315 317 318 319 319 318 320 319 320 321 323 323 322 319 316 314 310 310 310 309 307 306
322 322 321 320 319 319 318 318 317 317 316 316 318 317 316 314 311 310 310 310 309 309 309 308 308 308 308 309 312 315 317 318 318 317 314 314 318 317 315 311 312 312 311 311 310 310 309 308 308 307 306 305 305 305 306 309 310 311 311 311 310 312 313 313 314 317 318 317 317 316 318 320 320 321 319 316 314 313 311 309 306 306 305 304 304
321 322 322 320 319 319 319 319 318 317 317 317 314 305 304 308 315 311 310 310 309 308 308 308 308 308 308 308 308 311 316 318 321 315 309 307 308 311 313 315 315 313 311 311 311 310 308 308 308 307 306 305 306 306 307 308 310 310 310 310 309 310 309 307 307 312 318 316 316 313 315 319 319 319 315 312 310 310 308 305 302 303 303 303 302
320 320 320 321 321 320 319 318 318 318 317 317 305 304 303 302 309 314 310 310 309 308 308 307 308 308 308 308 308 309 310 311 311 310 311 309 306 305 304 304 305 307 309 312 313 310 308 308 308 308 306 306 306 307 307 309 310 310 311 310 309 309 309 308 308 307 314 318 313 311 312 317 317 317 314 310 309 308 306 303 302 302 302 301 301
320 318 319 319 319 320 319 318 318 318 318 312 304 303 302 301 300 311 312 310 309 309 308 307 307 307 308 308 308 308 307 314 316 315 312 312 312 309 308 308 307 304 297 297 301 312 313 309 309 309 308 307 306 307 310 311 311 308 308 308 309 310 310 309 310 310 313 316 312 310 310 316 316 315 314 310 308 307 306 303 301 301 301 301 300
318 317 317 317 318 318 318 318 318 318 318 314 305 304 302 300 299 301 312 311 309 309 309 308 308 308 308 308 308 308 309 310 312 313 313 312 310 309 310 310 311 312 307 298 297 297 305 312 311 310 310 309 308 309 311 312 310 309 308 308 310 310 310 311 313 314 315 317 311 310 309 315 317 315 312 309 308 307 306 302 301 301 300 300 300
317 317 317 316 317 317 317 317 317 317 317 310 304 303 302 301 299 301 310 311 310 309 309 309 308 308 308 308 308 308 309 308 308 309 309 308 308 307 308 308 309 310 310 311 308 305 304 307 309 311 311 309 308 309 310 311 310 310 310 309 310 311 312 313 313 314 313 315 313 311 308 314 317 315 312 309 309 308 307 303 301 301 300 300 300
317 317 317 316 316 316 316 316 315 315 317 306 303 302 301 300 299 307 309 310 310 310 309 309 308 308 309 308 308 308 308 307 309 304 309 310 307 307 308 308 309 309 309 311 305 305 310 309 309 309 309 308 305 309 310 310 309 309 309 310 311 310 309 308 307 310 310 313 312 313 311 312 316 313 313 310 309 309 308 307 302 300 300 299 299
315 315 316 316 317 317 316 315 314 315 316 310 303 302 301 300 301 309 309 310 310 310 310 310 309 309 309 308 308 308 308 308 306 298 298 310 309 308 308 308 308 308 309 310 304 300 300 300 299 299 298 297 296 297 296 295 300 303 305 305 305 308 307 305 306 306 308 308 310 312 311 310 313 312 311 308 307 307 307 306 305 300 299 299 299
313 314 315 315 316 316 316 315 315 314 315 313 305 302 300 300 306 310 310 310 310 310 311 311 310 309 309 314 313 308 308 308 302 298 296 306 308 307 307 306 306 307 308 309 309 307 298 296 295 294 294 294 293 293 293 292 293 298 305 303 306 307 305 306 305 306 308 309 312 314 311 311 312 310 309 307 306 306 307 307 305 303 300 300 298
314 314 315 314 314 314 314 315 319 317 315 314 306 302 300 300 304 310 310 310 309 310 310 310 310 309 309 312 315 313 310 307 300 298 297 306 308 307 306 307 306 306 308 310 308 308 307 307 306 304 301 298 301 303 306 300 297 303 305 306 307 306 305 305 306 305 305 308 312 314 310 310 311 311 311 309 306 308 308 308 306 304 304 304 303
Wind_Speed
5 5 4 5 5 5 5 5 5 5 5 4 3 4 3 3 2 2 2 2 2 3 2 2 2 2 2 2 2 3 3 3 3 3 2 2 3 4 4 4 5 7 8 11 10 9 10 13 10 12 14 15 16 17 17 18 18 16 16 16 16 17 17 17 17 17 16 15 15 15 14 15 15 17 16 14 13 14 13 12 12 12 12 11 11
5 5 5 5 5 5 5 5 5 5 5 5 5 4 4 4 3 2 2 2 2 3 3 3 2 2 2 2 2 2 2 2 3 3 3 2 2 3 5 5 6 5 5 8 8 10 10 12 11 12 13 13 13 15 16 18 18 17 16 16 16 16 17 17 17 16 16 16 16 15 15 15 15 15 16 14 14 14 13 13 12 13 12 11 11
5 5 4 4 4 5 5 5 6 6 5 5 5 4 4 3 4 4 4 3 2 1 2 2 3 2 2 2 2 3 3 3 3 4 4 3 3 3 3 5 2 2 9 9 12 11 9 9 10 12 14 16 16 16 16 17 17 18 17 16 16 17 17 17 17 16 17 16 16 14 14 15 15 16 16 15 15 15 15 13 12 11 12 11 11
5 5 5 5 5 5 5 5 5 5 5 5 5 4 4 4 4 4 3 3 3 2 2 2 2 2 2 2 3 3 3 3 4 4 3 3 3 3 3 3 3 3 7 10 13 10 7 10 10 13 13 16 17 19 18 17 17 17 18 17 16 17 17 17 17 17 17 16 16 15 13 15 16 17 17 16 15 15 14 14 13 12 13 12 11
5 5 5 4 5 6 6 5 5 5 5 5 5 5 5 6 6 5 4 4 4 4 4 3 3 3 3 3 2 3 3 3 3 3 4 4 3 2 2 2 3 3 2 6 7 7 11 13 12 12 15 15 16 17 16 17 17 19 18 18 17 18 17 18 17 17 17 17 16 15 15 14 16 17 17 16 14 15 14 13 13 14 13 13 12
5 5 4 5 5 5 5 6 5 5 5 5 6 5 5 6 6 5 6 5 6 6 5 5 4 4 3 3 3 3 3 3 3 3 3 4 3 3 2 2 2 2 2 2 8 12 10 10 12 12 13 14 15 15 15 16 17 16 18 19 18 18 18 18 17 18 18 17 17 16 15 14 15 16 16 14 15 14 14 13 13 13 13 13 13
5 4 5 5 5 5 6 5 5 5 5 5 5 5 5 6 6 7 6 6 5 5 5 5 5 4 4 4 4 3 3 3 2 3 3 3 3 3 2 2 3 2 2 1 1 2 6 13 13 12 8 12 12 15 16 18 16 16 16 19 19 18 18 18 18 18 18 18 17 16 15 15 16 16 16 16 16 15 14 13 12 13 14 13 14
5 5 5 5 5 5 5 5 6 5 5 6 6 7 6 5 6 6 7 7 7 7 5 6 5 5 5 5 4 4 3 3 3 3 4 3 3 3 3 2 1 2 2 2 2 4 9 8 10 9 10 10 12 15 16 17 17 19 20 19 19 19 20 18 18 18 18 18 17 17 15 16 17 16 17 17 17 16 15 14 13 13 14 14 13
5 5 5 5 5 5 5 5 5 5 6 6 6 5 6 6 6 5 5 5 7 8 7 6 6 5 6 5 4 4 3 3 3 3 3 4 3 5 5 4 4 5 3 1 2 3 5 7 4 14 16 10 12 10 12 17 18 19 18 19 19 20 20 19 18 18 19 18 18 16 15 15 17 16 17 17 17 17 16 15 14 13 14 13 12
5 5 5 4 4 4 4 6 5 5 5 6 6 5 5 5 6 5 5 5 6 7 8 7 5 5 5 5 4 3 2 2 3 3 3 4 5 4 4 4 5 5 4 3 1 1 2 4 6 4 3 10 12 12 13 13 15 17 17 18 18 20 20 19 18 19 19 18 17 16 16 16 17 16 16 17 18 18 17 16 16 15 14 13 13
5 5 5 4 5 5 5 5 5 6 6 6 6 6 6 5 6 6 5 4 5 5 6 6 5 3 4 4 3 2 1 2 2 3 3 3 5 5 4 5 5 5 4 3 1 0 2 3 3 2 4 9 8 11 13 15 17 16 17 19 20 18 19 19 18 19 19 19 18 17 16 16 17 17 17 16 17 17 18 17 17 16 15 15 14
5 4 4 4 4 4 5 5 5 5 6 7 6 6 6 7 7 6 7 6 6 6 7 6 4 2 4 4 2 2 3 3 3 3 4 4 5 4 5 4 4 4 3 4 2 1 2 3 3 3 4 7 11 12 15 13 13 16 17 19 20 20 19 20 19 19 20 19 18 17 17 18 17 17 16 16 16 19 18 17 17 17 16 16 15
4 5 5 4 4 4 5 5 5 5 5 5 5 6 5 4 3 3 6 7 7 8 9 4 5 4 3 3 4 2 3 4 5 5 6 5 5 6 5 5 5 4 4 4 4 2 3 3 3 3 4 4 5 8 11 11 9 13 16 18 19 20 18 19 20 20 21 20 19 18 18 18 18 18 17 16 17 19 18 18 18 17 18 17 16
4 3 3 4 4 4 5 5 5 4 3 4 5 5 7 7 5 5 3 4 5 6 7 4 5 4 3 4 4 4 2 4 7 7 6 6 6 5 4 4 5 5 4 4 4 4 4 4 4 3 3 4 5 4 4 6 8 11 14 16 19 19 19 19 20 21 20 21 20 20 19 19 19 19 19 17 17 18 18 18 18 19 18 17 17
5 3 3 4 4 4 4 4 5 4 5 6 6 7 5 6 6 4 5 3 3 4 7 7 3 2 1 2 2 3 2 5 4 5 5 6 5 7 6 6 7 6 5 5 5 5 4 3 3 3 3 4 5 5 5 4 6 12 14 12 15 16 20 21 19 20 21 21 21 21 19 19 20 20 20 18 17 17 18 19 19 18 18 18 17
4 3 3 4 4 4 4 4 4 4 4 5 5 6 6 6 6 5 3 5 5 5 5 6 6 4 3 3 1 1 3 4 4 3 2 4 7 5 7 6 5 6 4 5 5 5 5 4 4 4 4 4 5 5 5 4 7 10 13 15 17 16 18 20 19 19 20 21 21 21 20 19 19 19 20 19 18 17 18 19 18 17 18 18 16
3 4 2 3 3 4 4 3 4 4 3 4 4 3 3 3 4 5 6 3 5 4 5 6 8 6 3 1 2 3 1 2 3 3 3 3 6 5 6 8 7 5 4 5 4 4 5 5 5 4 4 4 3 4 4 3 4 6 8 12 12 13 17 17 19 18 19 20 22 21 21 21 20 20 20 20 19 19 18 19 19 18 16 18 18
3 3 3 2 5 4 4 4 4 4 3 3 3 4 6 6 5 3 5 5 2 6 6 5 4 6 5 3 1 1 1 2 3 2 3 1 3 4 5 7 6 5 6 6 6 6 5 6 5 4 3 3 3 3 3 4 4 4 4 6 15 18 15 15 17 19 21 23 22 22 23 22 21 21 20 20 20 20 19 20 20 18 17 15 16
3 3 3 3 3 3 4 3 3 3 2 3 5 5 4 4 4 5 4 3 4 6 6 5 5 6 6 5 6 4 3 2 3 1 4 4 2 6 5 8 6 5 8 8 7 6 6 5 5 4 4 3 3 3 3 4 5 6 8 7 9 11 14 16 17 19 22 23 23 23 23 23 22 21 21 20 21 20 19 19 19 18 17 16 15
3 4 3 2 2 3 3 3 3 2 1 4 3 3 3 4 4 3 3 4 4 5 5 5 5 4 5 6 6 5 6 5 3 2 2 3 7 5 1 8 5 4 5 8 8 7 8 7 5 4 3 4 3 3 4 3 3 4 5 9 10 12 13 14 16 18 20 21 20 22 22 24 23 22 22 21 21 21 18 18 17 17 18 18 18
2 3 3 3 1 1 2 2 2 3 1 2 2 3 4 4 5 5 5 4 4 2 4 4 4 4 5 5 4 5 4 4 4 4 5 4 2 5 8 7 6 5 8 7 7 6 6 8 6 6 3 4 4 4 4 4 4 4 5 9 11 13 14 15 15 17 19 21 21 22 23 22 23 23 22 22 22 22 20 19 19 18 19 18 17
3 2 3 2 2 1 2 2 1 2 1 1 1 2 3 4 3 4 3 5 3 3 4 2 3 3 3 3 5 4 5 5 6 5 3 4 2 5 5 6 7 6 6 8 9 7 5 6 7 6 5 3 3 4 4 4 4 3 5 9 12 14 14 14 14 16 20 20 20 22 22 21 22 24 23 22 23 22 23 21 20 19 19 18 18
3 2 3 2 2 0 2 4 2 1 1 1 1 0 2 2 2 2 4 4 3 3 3 2 2 3 4 4 4 4 3 3 2 3 3 4 4 5 5 4 4 7 6 7 7 6 4 3 5 5 5 5 3 3 4 5 6 7 9 10 11 12 14 14 12 13 15 18 21 22 23 23 22 22 24 23 23 23 23 24 21 20 19 19 19
2 3 3 3 2 2 2 2 2 1 2 2 3 0 0 1 1 2 2 1 2 3 4 5 4 3 3 2 2 1 1 2 1 0 2 1 2 3 4 5 3 1 5 7 5 5 5 5 5 4 4 4 5 5 5 5 5 6 7 9 10 12 13 14 10 12 15 16 18 21 22 23 23 24 22 22 23 24 24 23 22 20 20 20 20
4 4 5 5 3 3 4 4 3 3 3 3 3 1 1 1 1 1 2 2 2 2 3 1 2 4 3 1 0 0 2 1 0 1 1 1 1 3 3 1 3 5 3 3 4 6 2 4 4 3 3 5 4 4 5 5 5 5 6 7 9 11 13 12 13 14 15 15 17 20 22 21 23 23 23 23 23 23 24 22 22 21 21 20 22
5 6 6 4 4 5 3 4 3 4 3 4 3 3 1 1 1 2 3 2 1 2 1 1 1 1 1 2 1 2 2 1 1 1 1 1 2 2 3 2 2 3 3 3 3 4 3 5 4 2 3 5 5 5 4 4 5 5 7 7 7 8 9 10 11 12 13 13 15 17 18 18 20 22 23 24 24 23 21 19 20 22 21 21 21
6 7 5 4 5 4 5 5 4 5 4 3 3 3 3 2 2 2 3 2 1 1 3 3 4 5 4 3 3 2 1 0 1 1 1 1 1 2 0 4 4 2 4 2 2 2 3 3 5 2 5 7 6 6 5 5 6 6 6 5 6 7 9 10 11 12 12 12 13 14 17 20 20 22 23 24 23 22 18 22 22 21 22 22 21
5 4 5 4 5 5 4 5 5 4 4 4 5 4 4 4 4 3 4 1 3 3 3 3 4 3 4 2 2 3 2 2 1 0 1 1 1 2 2 2 3 7 2 4 3 3 2 4 3 2 6 7 6 5 6 6 5 9 5 4 5 5 7 9 10 11 11 11 12 14 15 15 16 16 19 19 17 16 20 24 22 22 22 23 23
5 4 4 5 5 5 5 5 5 5 5 5 5 5 4 4 4 4 5 3 2 5 3 3 4 3 4 3 3 3 3 2 2 1 1 1 1 2 2 2 2 3 4 4 3 2 3 4 3 3 5 7 7 6 6 5 7 8 5 4 5 5 6 8 10 10 10 11 12 13 13 13 11 14 16 15 14 18 21 23 24 23 22 22 22
5 4 5 5 5 5 5 5 5 5 6 5 5 5 4 4 5 5 5 3 4 4 4 3 4 3 3 2 2 3 2 2 2 2 1 0 1 2 1 1 2 1 1 3 4 2 3 3 1 3 4 7 6 7 5 6 8 9 6 5 5 5 5 7 8 9 10 10 11 11 13 15 16 14 14 16 18 21 23 24 24 22 24 23 21
4 1 2 4 4 5 5 6 5 6 5 6 5 4 4 5 5 5 5 3 4 5 5 3 4 3 4 4 2 3 2 2 2 2 2 2 1 1 1 0 1 2 2 1 3 2 1 3 3 2 3 6 6 5 5 5 7 8 6 6 7 7 7 4 6 8 9 9 10 10 10 11 14 15 14 11 13 19 21 22 21 23 24 23 20
4 6 5 6 6 6 6 6 6 5 6 6 5 5 4 5 5 5 5 3 4 5 6 4 3 3 4 5 4 4 1 1 2 2 2 2 1 1 1 1 1 2 2 2 2 5 2 3 3 5 5 6 6 4 6 6 6 8 6 5 6 7 5 4 4 6 7 7 9 10 9 10 10 10 11 14 15 14 14 17 17 17 18 16 16
6 6 7 7 7 7 7 6 7 6 6 6 5 4 5 6 5 6 6 5 5 6 4 6 4 4 4 5 5 4 2 2 2 2 3 2 3 1 0 1 0 1 2 2 2 4 3 2 2 3 4 5 5 3 6 6 7 7 7 5 6 5 5 4 5 5 6 8 8 8 7 7 8 7 8 12 15 13 12 13 15 17 15 15 18
7 8 8 7 6 7 7 7 7 7 6 7 5 4 5 6 6 5 5 6 6 6 4 6 6 4 4 5 5 5 2 4 3 3 3 3 3 3 2 1 1 1 2 2 2 2 4 3 3 2 2 1 4 2 4 6 7 6 6 6 5 5 5 5 5 5 6 6 8 9 9 7 7 7 8 10 13 13 12 13 16 16 16 15 12
6 7 7 7 7 6 6 7 7 7 7 7 6 5 6 6 7 6 6 6 6 7 6 6 6 4 4 5 6 5 2 3 3 4 3 4 3 3 4 1 3 2 3 4 1 2 4 4 3 3 2 2 2 4 5 4 5 4 4 5 5 4 4 5 5 4 6 8 8 8 9 9 7 8 9 9 10 11 12 14 17 18 16 15 15
6 7 7 7 6 6 6 7 7 7 7 7 6 6 7 7 7 8 7 6 7 7 7 7 6 5 5 4 6 5 3 4 5 4 3 4 4 3 4 2 2 4 3 3 3 2 1 3 3 4 3 4 3 3 3 4 4 5 3 4 4 3 5 5 5 5 6 9 9 8 8 8 8 6 6 8 9 10 11 12 13 12 12 13 14
6 6 6 6 6 6 7 8 8 8 8 7 7 7 7 6 7 7 7 7 7 7 7 7 5 6 5 6 6 4 3 5 4 4 3 4 3 3 4 3 3 4 3 2 2 2 3 4 4 3 3 2 2 3 2 5 5 4 3 4 5 4 4 3 4 4 6 7 7 8 8 8 8 9 6 7 8 8 9 10 11 11 11 13 14
6 6 7 6 7 8 9 9 9 8 7 6 7 7 7 7 6 7 7 7 7 7 7 7 7 6 6 6 6 4 4 5 6 5 3 5 3 3 4 5 5 3 4 3 1 2 2 3 3 4 2 4 4 3 2 4 5 5 4 3 4 3 5 6 5 4 4 4 4 5 6 7 7 7 7 6 6 7 8 8 8 9 9 10 11
6 6 7 7 7 8 9 8 8 8 8 7 6 7 7 6 7 7 7 7 7 6 7 7 7 6 6 5 5 5 5 6 6 6 5 4 4 5 5 5 4 3 4 4 1 2 2 2 2 2 3 2 1 5 3 5 3 2 5 8 6 2 3 5 7 5 3 3 2 4 6 7 7 5 5 4 5 4 2 4 5 6 8 9 10
7 7 7 8 7 7 8 8 8 7 7 7 7 7 7 6 6 7 7 7 7 7 7 7 7 6 6 6 6 6 6 6 6 6 5 5 4 5 5 4 3 3 4 4 3 3 2 2 2 2 1 2 3 2 3 4 4 1 2 3 7 9 7 5 4 7 4 4 5 5 5 6 6 5 3 4 6 5 6 4 4 2 4 6 8
6 7 6 6 6 7 7 7 7 6 6 7 6 6 7 7 6 7 7 7 7 7 7 7 7 6 6 6 6 6 6 8 9 7 6 6 4 5 5 4 4 4 4 3 3 3 3 2 4 2 2 3 3 3 5 4 5 6 7 4 4 6 7 7 6 4 3 5 5 4 5 5 6 5 4 3 5 6 7 8 6 8 7 5 5
6 6 6 6 6 7 7 8 7 6 7 6 8 11 10 7 7 6 6 7 7 7 7 7 7 7 7 6 6 9 10 11 11 11 9 8 9 7 6 4 4 4 4 5 4 3 3 3 4 3 4 4 3 2 3 3 5 5 6 5 6 7 7 7 5 1 3 5 6 7 5 4 4 5 3 3 4 5 4 5 5 6 6 7 7
7 7 6 7 7 7 8 8 8 7 7 7 12 12 13 13 8 7 7 7 7 7 7 7 8 8 7 6 6 7 9 10 9 9 9 9 9 10 10 9 7 7 5 6 6 4 3 4 3 3 3 5 5 3 3 4 3 4 4 4 5 6 6 6 7 7 1 5 7 9 7 4 4 5 2 3 4 4 4 4 7 6 7 7 7
8 6 7 8 8 7 7 7 8 8 8 10 13 13 14 14 11 8 7 7 7 7 8 8 8 7 7 7 6 5 6 8 7 7 8 9 9 8 8 8 9 10 9 8 7 4 4 4 4 5 3 4 4 4 3 2 3 4 5 6 6 5 6 6 6 6 4 5 9 9 9 4 3 2 1 2 3 3 3 5 7 7 7 7 6
6 7 9 8 9 8 8 9 9 9 9 12 13 14 14 14 14 11 7 7 7 8 8 9 9 8 7 7 7 6 6 10 9 7 7 7 7 7 6 7 8 9 11 12 10 7 3 5 6 5 5 3 3 3 3 2 1 5 5 5 6 6 6 6 6 6 8 7 8 7 6 4 2 2 3 1 1 2 2 4 7 6 6 6 6
7 9 8 9 9 9 9 10 10 9 10 13 15 15 15 15 15 11 8 9 8 9 9 9 9 9 9 8 8 7 7 6 7 7 7 7 6 5 5 5 5 7 8 10 11 9 8 6 5 6 5 5 5 4 5 2 3 4 3 4 4 6 7 7 7 7 8 6 6 3 5 3 1 2 3 2 2 0 0 2 5 5 6 7 7
9 10 10 10 10 9 9 9 9 10 10 16 16 16 16 16 15 10 8 8 8 8 9 9 10 10 9 8 8 9 8 7 7 8 8 8 7 6 6 6 6 6 4 5 7 7 8 8 7 8 7 5 6 7 4 3 4 4 4 6 6 6 6 6 6 6 6 3 4 3 5 6 1 2 2 2 1 1 0 1 5 5 5 6 6
8 7 7 7 9 10 10 9 9 11 12 16 16 16 16 16 14 7 8 8 9 9 9 9 9 9 9 9 8 9 9 9 10 12 10 7 6 7 7 7 6 6 6 7 8 8 8 7 7 8 7 7 6 6 5 3 3 4 4 5 5 6 6 6 7 3 3 0 2 4 4 5 1 4 4 1 2 2 1 0 3 4 4 4 4
9 9 10 10 10 10 10 9 10 11 12 15 16 16 16 17 9 7 8 7 7 10 10 10 10 10 9 9 10 9 10 10 12 13 13 8 7 7 7 7 6 6 8 6 8 12 12 11 11 10 8 8 8 9 9 7 6 3 3 3 5 4 4 6 5 3 4 1 2 5 3 5 2 2 3 1 3 3 2 1 1 2 3 3 3
10 11 10 9 9 9 10 10 11 11 12 15 16 15 16 16 12 10 8 8 9 9 10 10 8 8 9 16 12 10 10 12 14 15 13 9 8 8 7 7 7 8 8 7 4 5 9 10 10 10 10 10 9 9 9 8 8 7 4 5 4 1 6 7 8 5 3 2 4 5 4 4 1 2 2 1 1 3 3 2 2 2 2 2 2
10 9 7 7 8 7 9 11 11 12 12 14 16 15 16 15 11 8 7 7 9 9 9 10 9 7 8 10 16 14 13 14 16 15 13 11 9 9 9 7 7 7 8 7 5 5 4 4 5 4 5 6 6 5 6 9 10 10 7 7 3 4 6 8 9 8 7 5 4 7 4 2 2 2 2 2 2 1 1 2 3 2 2 2 1
Wind_Direction
2 359 344 16 2 4 5 6 3 357 350 354 6 345 357 357 3 343 335 330 330 329 334 346 17 50 60 55 35 19 13 347 339 333 338 346 353 341 348 328 303 262 251 266 251 242 232 256 231 211 215 202 197 194 187 183 179 176 171 166 173 171 172 171 169 169 166 165 166 164 162 164 166 162 159 155 155 154 158 160 160 163 155 150 157
354 358 14 11 0 1 11 3 1 357 3 356 347 350 345 347 5 14 356 347 358 325 333 323 337 31 45 49 32 7 8 351 339 341 340 3 26 11 356 10 1 256 262 273 272 260 245 235 237 229 218 204 221 205 195 187 181 178 175 170 174 176 176 173 175 170 169 169 171 168 166 167 170 167 160 158 159 157 161 163 166 166 165 157 159
9 360 17 18 9 12 10 354 13 6 356 355 348 348 335 332 341 342 347 346 346 322 331 327 339 8 30 32 23 14 13 11 352 351 349 11 30 30 20 13 74 86 199 230 244 248 244 242 243 220 218 217 202 216 201 193 189 180 177 177 177 178 181 180 177 173 174 174 174 173 170 169 171 167 167 166 166 164 164 167 170 171 164 162 164
12 10 22 12 13 8 2 16 10 358 360 354 354 353 346 335 341 341 328 334 330 350 4 9 1 357 350 22 21 23 17 360 4 2 356 10 30 28 24 358 337 135 198 219 224 221 253 257 242 236 223 225 213 212 200 192 189 192 177 179 182 179 182 189 183 177 178 177 176 175 176 169 171 174 174 176 175 172 170 169 170 172 168 166 158
6 17 10 15 19 16 7 7 7 358 354 356 2 4 7 7 2 354 354 353 354 356 352 13 19 4 6 27 29 23 13 8 22 2 4 21 41 46 25 21 335 335 302 222 205 226 217 235 235 234 230 225 222 217 211 196 199 192 181 180 182 185 185 190 187 177 180 179 179 178 177 176 176 179 180 183 182 176 174 172 170 170 174 168 161
7 8 18 16 18 20 2 9 358 353 7 12 19 6 15 21 7 13 12 17 11 356 356 353 358 358 23 30 37 31 9 15 33 8 359 24 37 51 39 25 358 346 334 263 188 211 212 230 238 239 237 231 223 219 218 207 205 198 188 182 184 187 190 190 190 182 182 180 182 180 179 177 175 178 184 187 181 178 178 179 174 172 178 174 169
7 14 12 24 24 18 16 351 345 360 24 15 19 19 22 24 13 13 2 12 3 360 4 359 353 1 16 32 37 34 23 350 6 357 355 3 39 50 41 24 355 358 335 20 208 176 214 219 217 240 246 252 229 215 211 218 200 204 205 190 186 188 190 191 190 189 185 184 185 186 181 174 174 180 185 185 182 180 181 181 179 169 175 186 175
6 16 30 25 32 31 10 357 3 15 26 19 26 23 3 20 21 21 9 4 2 357 2 357 356 9 32 42 43 44 19 343 9 0 353 354 32 38 41 31 1 307 347 151 139 197 227 237 193 220 237 240 245 225 213 212 210 205 202 198 193 190 192 192 190 190 191 185 187 191 186 176 178 184 188 186 183 182 181 182 182 176 179 186 183
15 27 29 26 27 37 13 11 5 25 31 23 28 16 21 11 15 22 27 359 360 355 354 355 347 7 41 48 51 51 33 352 352 355 360 29 27 36 31 25 14 14 0 271 161 191 244 248 205 202 209 210 227 238 229 209 214 208 204 201 202 193 195 193 189 191 191 190 188 188 187 186 183 186 188 188 186 182 181 184 183 183 181 185 193
23 32 44 27 32 40 23 19 14 28 35 32 22 8 25 28 14 13 11 7 11 356 346 339 338 356 35 45 46 54 35 2 1 23 29 33 32 34 25 21 19 19 11 17 81 175 214 261 269 284 323 223 228 217 222 225 222 206 206 207 208 203 194 196 192 189 191 193 191 189 190 194 188 186 187 194 190 186 184 187 190 187 186 186 188
19 21 48 35 30 30 32 12 22 27 27 27 19 10 14 18 29 1 9 11 15 353 350 328 332 350 26 34 31 30 348 359 27 38 33 9 12 39 31 24 18 14 6 11 80 255 256 247 245 223 213 236 240 233 233 215 222 216 209 206 210 214 199 195 193 191 192 194 191 193 190 193 192 190 192 197 195 193 191 192 194 190 191 190 188
25 15 34 43 35 26 27 21 26 37 34 25 11 8 4 4 7 11 6 2 14 4 2 349 337 46 28 22 31 48 53 30 34 53 46 33 33 32 29 24 7 345 360 349 349 246 238 250 250 241 226 223 219 226 211 227 221 215 217 207 208 210 211 193 193 193 193 195 193 194 190 192 194 193 194 200 198 197 196 197 198 194 194 196 193
22 26 21 30 42 25 34 25 21 42 42 27 357 0 4 353 346 13 24 20 9 0 360 5 24 0 22 18 33 30 60 46 57 41 45 40 40 36 29 20 13 2 348 339 341 320 277 270 270 259 249 237 234 239 222 215 242 221 216 210 207 210 213 207 195 195 195 195 195 194 192 193 193 193 196 202 200 202 199 199 199 198 196 197 198
5 25 28 34 33 37 34 21 24 37 50 28 27 20 8 10 358 14 24 44 22 360 359 6 30 31 3 338 355 341 16 30 46 32 38 41 45 42 23 16 12 6 354 345 347 328 313 300 286 277 265 258 246 232 235 205 195 205 221 223 212 209 208 215 206 197 196 198 197 195 195 195 197 195 195 200 207 202 205 203 201 200 197 198 202
9 16 33 23 30 43 30 19 37 24 42 31 24 23 9 8 7 11 343 11 13 4 24 41 30 332 112 22 19 350 319 9 1 28 20 32 31 34 26 28 22 13 360 348 344 331 325 301 284 261 259 269 260 247 233 213 191 203 213 227 220 218 213 211 212 206 198 198 196 197 197 196 201 202 196 198 205 209 204 205 205 202 203 200 203
3 14 38 37 43 38 20 42 36 36 59 59 32 22 15 10 5 12 36 18 6 350 17 24 41 11 38 54 351 79 357 9 348 303 329 27 29 23 22 18 4 16 12 5 341 333 330 310 303 300 285 273 271 255 239 218 214 211 210 210 213 220 225 215 211 213 210 202 198 197 197 200 200 203 202 200 201 209 208 207 210 202 205 207 203
359 3 22 42 43 47 47 41 46 29 45 65 51 24 6 14 16 28 35 46 10 346 348 16 31 33 46 21 25 45 53 278 323 264 356 13 8 13 27 13 2 4 4 359 345 334 321 319 315 311 302 296 264 254 257 262 226 229 218 214 223 238 226 224 220 218 218 216 205 201 200 202 202 204 203 207 203 204 207 210 211 207 207 203 203
3 342 11 35 34 27 32 41 37 30 44 65 60 28 18 18 14 12 35 29 103 29 2 352 21 25 30 45 35 97 316 295 52 342 327 157 0 16 32 13 355 356 356 359 359 343 325 321 319 314 308 304 290 262 258 260 247 241 242 227 212 214 235 227 225 222 221 216 213 208 204 204 206 207 210 208 208 205 207 211 214 210 208 206 200
327 332 1 40 58 30 38 34 34 19 28 40 40 21 359 12 10 25 25 16 48 57 22 332 339 22 10 11 40 27 4 52 46 259 350 323 53 1 356 2 351 357 0 359 351 350 345 334 332 323 312 310 266 253 251 243 245 245 244 246 236 222 212 229 229 229 226 220 214 213 207 205 207 210 212 210 209 208 208 211 212 210 209 207 205
317 314 342 17 51 28 30 27 43 351 42 54 48 355 15 19 37 40 19 41 53 73 51 13 53 346 349 17 15 22 18 29 41 115 142 331 331 344 126 355 351 3 1 355 351 350 353 353 344 329 315 306 296 278 272 272 265 262 271 264 257 245 236 230 231 232 231 232 221 221 217 211 208 210 214 214 211 210 207 210 212 208 209 207 206
311 291 327 354 13 32 358 9 32 6 45 51 30 29 47 35 31 30 32 30 35 69 65 36 38 23 358 7 11 17 358 22 16 60 62 357 319 7 332 333 346 20 356 351 343 349 1 4 357 357 322 323 318 313 303 298 299 299 275 264 260 257 249 243 239 235 236 230 224 223 223 221 215 212 213 216 216 212 209 208 209 210 208 209 210
310 316 311 341 14 38 2 287 300 345 44 345 360 38 20 19 26 17 11 54 24 54 80 80 53 19 46 22 34 358 15 12 21 16 41 75 40 335 337 346 339 325 339 347 337 340 354 4 18 16 359 338 331 313 294 281 272 266 257 262 267 275 268 256 248 240 231 228 231 227 224 219 226 221 217 216 219 217 212 209 207 208 207 207 209
310 309 302 291 326 68 340 300 338 336 62 257 234 111 35 12 352 49 51 48 18 53 78 76 82 50 43 49 60 54 59 53 1 4 62 24 2 349 332 326 292 315 327 329 327 328 339 354 19 19 6 354 329 311 303 287 256 245 248 254 257 266 279 274 255 246 244 234 228 227 223 221 219 223 222 218 219 219 216 213 210 208 207 206 208
290 297 287 272 255 270 273 304 318 334 258 237 268 155 166 49 340 56 33 84 19 34 47 33 23 65 77 35 71 130 53 93 262 291 58 73 47 326 327 316 320 259 292 315 302 328 338 1 4 20 19 358 339 326 319 310 296 266 257 263 263 267 266 278 267 247 251 248 234 228 227 224 221 220 222 226 223 220 221 215 210 208 207 206 205
249 242 257 246 231 245 263 255 244 223 236 249 269 228 136 194 310 26 357 3 41 62 54 140 49 27 344 20 181 86 22 292 203 203 287 78 96 11 305 1 304 318 306 340 335 322 298 352 353 9 10 11 350 346 326 322 315 289 262 266 261 262 262 268 270 256 253 252 241 231 229 226 225 221 218 217 226 230 224 217 213 208 209 207 206
221 221 226 222 223 222 231 250 230 235 233 229 247 266 175 133 242 313 287 307 50 339 283 259 228 321 220 86 330 57 354 281 274 170 164 118 43 45 323 320 278 297 297 320 319 346 334 342 353 6 9 9 354 344 339 321 314 286 270 273 267 260 266 268 266 274 276 265 254 245 239 235 230 229 225 222 219 223 237 239 215 211 209 209 208
220 228 218 215 228 218 216 239 236 233 239 249 245 231 223 201 200 225 282 247 210 281 312 351 351 348 348 5 332 351 283 234 211 253 175 170 194 191 110 335 334 302 328 300 315 303 306 294 317 360 8 1 351 343 335 330 319 302 274 270 265 257 262 264 270 270 269 277 271 256 245 237 233 233 232 230 227 223 216 236 237 220 213 209 209
236 232 227 212 228 230 225 231 229 234 234 235 244 238 231 230 243 224 271 249 274 296 274 311 293 303 307 294 338 317 330 333 282 245 209 199 202 187 153 162 337 343 332 335 348 319 311 352 323 356 11 356 341 336 324 326 332 333 316 304 286 270 248 250 257 261 265 267 272 268 256 251 244 241 240 233 230 227 227 229 233 233 220 216 211
235 220 224 221 229 233 234 238 232 232 242 238 235 242 232 239 252 245 255 249 236 271 281 278 282 281 294 301 284 297 305 294 306 262 103 139 207 199 187 199 202 314 350 335 331 333 321 4 338 317 2 344 340 333 336 339 334 338 324 310 296 278 253 244 250 259 262 264 261 265 278 279 266 250 247 239 231 231 232 236 233 230 231 228 228
215 217 208 217 227 234 234 242 238 231 237 244 240 243 247 259 257 262 254 248 273 283 268 262 279 284 288 303 281 290 282 298 307 299 170 163 187 167 166 200 175 261 236 331 315 252 291 316 227 309 330 335 336 332 334 330 337 343 337 330 322 306 273 255 252 253 260 260 254 250 246 241 248 254 254 246 225 227 232 237 232 227 236 235 227
204 95 6 286 244 236 234 245 242 239 239 244 241 244 228 253 261 262 272 245 256 276 269 256 266 273 289 295 271 263 255 280 295 297 264 146 286 193 142 136 204 209 247 154 331 273 195 299 283 305 321 315 332 322 330 335 342 345 345 349 351 332 313 290 264 261 262 264 270 268 259 254 248 246 248 249 237 236 242 240 236 236 228 229 228
155 158 172 222 237 245 239 239 244 244 244 247 233 241 230 236 250 261 263 246 255 261 278 260 257 249 256 272 272 260 242 214 285 271 275 287 165 258 154 139 229 234 187 176 252 293 229 250 285 302 322 313 323 339 343 337 338 350 351 350 352 341 345 340 294 273 276 261 249 245 247 253 252 250 249 248 247 249 246 250 253 249 244 230 230
181 184 190 217 219 225 238 240 237 241 241 250 235 224 233 247 246 245 258 246 255 264 262 285 258 237 238 238 259 254 212 216 212 271 281 277 314 297 233 158 149 241 191 180 232 291 290 232 263 301 321 325 329 5 347 344 338 343 347 351 357 359 357 347 333 302 275 272 269 260 243 243 256 259 258 259 257 246 238 246 242 242 237 234 235
185 197 199 206 212 216 226 238 239 241 242 248 244 211 231 243 255 238 248 244 247 259 256 268 277 245 238 240 250 258 197 232 220 225 249 278 284 308 301 281 298 272 218 202 217 234 286 307 301 292 295 38 319 319 358 340 337 335 341 344 352 357 357 353 348 344 322 285 273 278 276 254 238 241 240 250 256 258 247 232 239 236 232 224 230
203 205 207 204 206 208 221 233 235 240 239 242 238 220 232 235 249 254 238 236 239 250 249 250 260 258 244 234 247 251 203 232 240 234 232 247 241 246 275 258 289 255 228 220 190 263 275 295 300 317 308 337 320 318 335 327 318 323 326 350 342 341 357 353 351 349 344 335 313 292 288 290 280 250 237 230 239 246 249 240 237 238 232 228 210
208 217 219 215 202 203 219 231 232 237 242 238 235 223 231 230 236 248 249 237 236 234 237 245 251 241 234 242 248 239 217 232 252 238 236 234 231 229 256 256 244 260 226 207 208 239 262 296 309 309 320 331 309 299 308 314 332 333 339 326 337 344 349 348 348 345 346 348 344 337 320 305 291 271 256 251 241 242 245 248 247 242 235 230 224
216 209 217 214 212 209 218 226 229 230 233 230 228 232 232 230 232 239 243 241 238 235 232 233 238 232 228 225 248 237 203 221 248 252 235 238 237 234 252 258 251 254 270 229 231 213 245 269 289 285 306 290 272 307 328 349 336 326 329 347 341 334 337 335 330 339 334 341 351 353 349 332 307 297 275 246 248 245 246 251 255 254 246 240 236
218 210 211 210 211 217 222 225 225 229 231 225 223 229 231 229 230 236 241 239 238 234 235 234 235 227 225 230 233 220 200 203 229 241 235 245 238 230 239 240 236 251 268 264 205 223 231 257 253 293 312 321 323 313 326 0 334 322 328 336 333 347 345 342 345 336 337 341 354 357 352 346 338 313 290 279 257 247 243 245 255 262 258 251 247
216 214 215 214 220 219 226 225 228 230 233 228 226 229 233 231 229 233 236 236 235 234 235 233 233 230 225 224 224 212 209 208 217 227 232 239 228 242 233 236 232 235 247 261 228 212 219 256 272 226 273 274 285 314 333 336 293 290 337 336 335 340 342 342 329 331 328 327 337 335 333 329 326 333 345 338 317 308 291 253 246 251 257 258 252
223 219 214 215 224 221 230 228 233 231 234 236 231 231 232 230 226 230 229 228 230 233 239 236 231 231 225 221 222 213 211 213 209 216 200 227 217 244 234 217 219 214 237 246 251 252 269 272 243 289 256 291 311 281 298 318 342 343 30 340 317 324 333 332 313 318 321 334 341 344 339 335 338 339 358 67 54 55 33 9 2 313 268 252 246
230 228 224 220 223 231 237 236 241 234 234 237 233 226 228 232 222 231 228 227 227 233 239 240 236 236 234 223 225 221 222 226 216 213 205 207 201 232 239 203 211 205 229 238 243 260 265 270 280 250 274 291 286 315 330 336 334 318 316 318 297 312 321 323 327 327 347 340 330 327 338 335 327 334 334 353 17 17 33 24 6 356 358 341 304
233 233 231 229 228 233 238 240 237 236 237 240 236 231 224 221 219 224 227 229 227 231 236 242 247 240 236 231 233 236 235 237 231 225 224 231 230 208 216 194 218 213 217 235 239 231 249 265 267 282 300 291 295 302 292 281 297 306 314 329 328 325 328 327 314 340 350 345 337 336 327 321 322 316 332 342 351 21 19 19 3 346 347 350 357
232 232 224 232 233 233 235 240 241 236 239 238 239 236 232 227 217 215 219 229 225 229 232 233 241 241 240 232 230 243 245 245 240 225 222 221 218 220 218 209 199 200 221 235 243 206 218 226 245 247 252 282 287 276 262 280 285 295 306 315 315 319 325 328 319 321 59 1 339 330 320 331 328 321 332 335 342 5 19 17 352 359 358 3 10
233 223 227 230 232 231 233 238 242 243 243 240 234 233 231 229 223 218 216 224 224 225 229 231 236 239 241 240 235 222 222 224 227 238 240 243 239 228 223 227 231 232 229 218 237 233 202 227 239 238 237 250 280 297 285 251 295 312 311 313 307 304 308 306 304 300 304 2 327 320 311 313 327 309 297 330 337 3 23 8 1 358 3 10 16
223 220 231 230 233 230 227 235 241 242 244 248 238 230 229 228 225 220 222 219 220 228 225 228 232 234 234 237 246 237 234 236 235 225 227 239 237 235 245 254 252 236 236 240 238 237 194 206 226 247 228 228 244 254 229 259 259 298 310 314 312 298 285 287 287 295 301 321 314 309 305 305 302 260 264 259 339 345 5 6 2 1 2 8 13
220 230 232 232 235 230 227 229 239 244 243 247 242 237 232 228 225 213 226 219 220 226 225 224 227 230 228 228 234 246 238 229 233 229 224 226 234 240 243 243 241 256 236 226 233 239 235 225 206 230 232 174 227 226 245 240 267 274 285 289 293 294 286 277 289 292 295 289 273 290 296 293 255 265 284 315 301 284 32 21 7 14 8 6 11
221 224 227 228 232 231 231 228 235 245 245 242 238 237 236 231 228 208 227 224 224 229 229 226 226 226 225 223 225 235 242 231 218 218 219 223 222 235 244 246 246 245 240 227 225 221 219 221 223 228 242 223 237 248 251 235 239 256 267 280 283 281 281 290 290 272 277 253 225 201 287 305 297 284 254 228 234 270 76 84 32 25 22 16 14
236 238 246 232 236 234 230 224 225 243 250 244 235 235 234 234 226 206 217 225 226 229 231 228 227 226 223 218 220 230 235 237 235 222 222 212 212 224 238 251 262 254 248 237 223 206 205 203 209 217 223 221 220 234 231 215 237 256 281 275 274 268 274 282 281 279 258 274 223 223 270 292 284 288 281 204 246 259 257 225 74 42 36 34 25
232 229 234 230 230 233 235 221 220 236 248 250 235 231 232 231 215 212 215 221 230 231 232 229 227 225 219 211 213 224 228 232 236 223 219 209 217 217 229 244 252 268 270 259 214 214 217 214 218 226 234 236 238 246 249 230 223 230 253 273 261 261 273 279 275 233 258 213 235 216 246 280 274 243 272 270 243 256 244 211 167 72 49 54 59
228 230 229 236 238 232 234 232 221 228 242 249 240 230 228 227 204 216 211 213 230 231 239 237 229 226 221 222 217 217 224 230 233 228 212 195 214 214 220 233 251 256 266 263 249 216 215 218 226 232 237 239 238 242 243 226 196 200 193 242 245 235 270 270 275 267 264 249 241 189 212 236 213 214 238 275 288 239 230 215 178 157 177 135 99
233 235 226 235 253 248 237 239 233 225 243 252 247 232 228 222 203 217 216 215 231 236 235 242 234 225 230 231 227 222 221 229 228 227 213 195 213 212 206 206 235 247 246 248 238 223 205 212 229 210 232 219 219 218 234 225 201 201 208 236 236 215 260 271 271 276 280 258 220 170 218 243 212 219 213 293 285 223 214 210 205 208 187 184 171